TimeEST,TemperatureF,Dew PointF,Humidity,Sea Level PressureIn,VisibilityMPH,Wind Direction,Wind SpeedMPH,Gust SpeedMPH,PrecipitationIn,Events,Conditions,WindDirDegrees,DateUTC
12:15 AM,48.2,42.8,82,30.18,7.0,Calm,Calm,-,N/A,,Clear,0,2013-02-07 05:15:00
12:35 AM,48.2,44.6,87,30.18,7.0,Calm,Calm,-,N/A,,Clear,0,2013-02-07 05:35:00
12:55 AM,46.4,44.6,93,30.17,7.0,Calm,Calm,-,N/A,,Clear,0,2013-02-07 05:55:00
1:15 AM,44.6,42.8,93,30.17,5.0,Calm,Calm,-,N/A,,Clear,0,2013-02-07 06:15:00
1:55 AM,46.4,42.8,87,30.17,7.0,Calm,Calm,-,N/A,,Clear,0,2013-02-07 06:55:00
2:15 AM,44.6,42.8,93,30.17,5.0,Calm,Calm,-,N/A,,Clear,0,2013-02-07 07:15:00
2:35 AM,44.6,41.0,87,30.17,5.0,Calm,Calm,-,N/A,,Clear,0,2013-02-07 07:35:00
2:55 AM,44.6,41.0,87,30.17,5.0,Calm,Calm,-,N/A,,Clear,0,2013-02-07 07:55:00
3:15 AM,44.6,42.8,93,30.16,5.0,Calm,Calm,-,N/A,,Clear,0,2013-02-07 08:15:00
3:35 AM,46.4,42.8,87,30.16,5.0,Calm,Calm,-,N/A,,Clear,0,2013-02-07 08:35:00
3:55 AM,44.6,42.8,93,30.17,3.0,Calm,Calm,-,N/A,,Clear,0,2013-02-07 08:55:00
4:15 AM,44.6,42.8,93,30.16,5.0,Calm,Calm,-,N/A,,Clear,0,2013-02-07 09:15:00
4:35 AM,46.4,44.6,93,30.17,5.0,NE,5.8,-,N/A,,Scattered Clouds,50,2013-02-07 09:35:00
4:55 AM,48.2,46.4,93,30.17,4.0,ENE,5.8,-,N/A,,Scattered Clouds,60,2013-02-07 09:55:00
5:15 AM,48.2,46.4,93,30.17,5.0,NE,5.8,-,N/A,,Scattered Clouds,50,2013-02-07 10:15:00
5:35 AM,48.2,46.4,93,30.18,5.0,NE,3.5,-,N/A,,Scattered Clouds,50,2013-02-07 10:35:00
5:55 AM,48.2,46.4,93,30.17,7.0,ENE,5.8,-,N/A,,Clear,60,2013-02-07 10:55:00
6:15 AM,48.2,46.4,93,30.17,7.0,ENE,8.1,-,N/A,,Clear,60,2013-02-07 11:15:00
6:35 AM,50.0,48.2,94,30.18,7.0,ENE,4.6,-,N/A,,Scattered Clouds,70,2013-02-07 11:35:00
6:55 AM,50.0,48.2,94,30.18,7.0,ENE,4.6,-,N/A,,Mostly Cloudy,60,2013-02-07 11:55:00
7:15 AM,50.0,48.2,94,30.17,7.0,NE,4.6,-,N/A,,Scattered Clouds,50,2013-02-07 12:15:00
7:35 AM,50.0,48.2,94,30.18,5.0,ENE,4.6,-,N/A,,Mostly Cloudy,60,2013-02-07 12:35:00
7:55 AM,51.8,48.2,88,30.18,7.0,NE,5.8,-,N/A,,Mostly Cloudy,50,2013-02-07 12:55:00
8:15 AM,51.8,48.2,88,30.17,7.0,ENE,6.9,-,N/A,,Scattered Clouds,60,2013-02-07 13:15:00
8:35 AM,51.8,50.0,94,30.16,7.0,ENE,8.1,-,N/A,,Clear,70,2013-02-07 13:35:00
8:55 AM,53.6,50.0,88,30.16,7.0,East,5.8,-,N/A,,Scattered Clouds,90,2013-02-07 13:55:00
9:15 AM,53.6,50.0,88,30.16,7.0,East,8.1,-,N/A,,Mostly Cloudy,90,2013-02-07 14:15:00
9:35 AM,55.4,50.0,82,30.16,7.0,ENE,5.8,-,N/A,,Mostly Cloudy,70,2013-02-07 14:35:00
9:55 AM,55.4,50.0,82,30.15,7.0,East,8.1,-,N/A,,Overcast,80,2013-02-07 14:55:00
10:15 AM,57.2,50.0,77,30.15,7.0,East,8.1,-,N/A,,Overcast,100,2013-02-07 15:15:00
10:35 AM,57.2,50.0,77,30.14,7.0,East,5.8,-,N/A,,Overcast,80,2013-02-07 15:35:00
10:55 AM,59.0,50.0,72,30.13,7.0,East,8.1,-,N/A,,Overcast,80,2013-02-07 15:55:00
11:15 AM,59.0,50.0,72,30.13,10.0,East,6.9,-,N/A,,Overcast,80,2013-02-07 16:15:00
11:35 AM,59.0,51.8,77,30.12,10.0,East,6.9,-,N/A,,Overcast,90,2013-02-07 16:35:00
11:55 AM,59.0,51.8,77,30.11,10.0,East,6.9,-,N/A,Rain,Light Rain,80,2013-02-07 16:55:00
12:15 PM,57.2,53.6,88,30.11,7.0,NNE,6.9,-,0.01,Rain,Rain,20,2013-02-07 17:15:00
12:35 PM,57.2,53.6,88,30.09,7.0,NNE,5.8,-,0.02,Rain,Light Rain,30,2013-02-07 17:35:00
12:55 PM,57.2,53.6,88,30.09,5.0,North,3.5,-,0.05,Rain,Light Rain,360,2013-02-07 17:55:00
1:15 PM,55.4,53.6,94,30.08,5.0,NE,5.8,-,0.04,Rain,Rain,50,2013-02-07 18:15:00
1:35 PM,55.4,53.6,94,30.07,5.0,NE,6.9,-,0.09,Rain,Rain,40,2013-02-07 18:35:00
1:55 PM,55.4,51.8,88,30.05,5.0,NE,10.4,-,0.14,Rain,Rain,40,2013-02-07 18:55:00
2:15 PM,55.4,51.8,88,30.05,5.0,ENE,5.8,-,0.04,Rain,Rain,70,2013-02-07 19:15:00
2:35 PM,55.4,53.6,94,30.04,5.0,NE,5.8,-,0.07,Rain,Rain,50,2013-02-07 19:35:00
2:55 PM,55.4,53.6,94,30.03,7.0,NE,8.1,16.1,0.10,Rain,Rain,50,2013-02-07 19:55:00
3:15 PM,55.4,53.6,94,30.02,7.0,NNE,6.9,-,0.02,Rain,Rain,30,2013-02-07 20:15:00
3:35 PM,55.4,53.6,94,30.00,5.0,NE,8.1,-,0.07,Rain,Rain,50,2013-02-07 20:35:00
3:55 PM,55.4,53.6,94,29.99,4.0,ENE,12.7,-,0.14,Rain,Rain,70,2013-02-07 20:55:00
4:15 PM,55.4,53.6,94,29.99,5.0,ENE,12.7,-,0.03,Rain,Rain,70,2013-02-07 21:15:00
4:35 PM,55.4,53.6,94,29.98,5.0,ENE,8.1,-,0.07,Rain,Rain,60,2013-02-07 21:35:00
4:55 PM,55.4,53.6,94,29.98,7.0,ENE,9.2,17.3,0.10,Rain,Rain,60,2013-02-07 21:55:00
5:15 PM,55.4,53.6,94,29.97,5.0,ENE,8.1,-,0.05,Rain,Rain,70,2013-02-07 22:15:00
5:35 PM,55.4,53.6,94,29.94,7.0,NE,24.2,31.1,0.11,Rain,Light Rain,50,2013-02-07 22:35:00
5:55 PM,55.4,51.8,88,29.95,10.0,NE,17.3,24.2,0.14,Rain,Rain,40,2013-02-07 22:55:00
6:35 PM,55.4,51.8,88,29.94,7.0,NE,12.7,-,0.10,Rain,Rain,50,2013-02-07 23:35:00
6:55 PM,55.4,51.8,88,29.92,10.0,NE,12.7,17.3,0.13,Rain,Rain,40,2013-02-07 23:55:00
7:15 PM,55.4,51.8,88,29.91,10.0,NE,10.4,-,N/A,Rain,Light Rain,40,2013-02-08 00:15:00
7:35 PM,55.4,51.8,88,29.90,7.0,NE,11.5,-,0.03,Rain,Light Rain,50,2013-02-08 00:35:00
7:55 PM,55.4,51.8,88,29.89,10.0,ENE,11.5,16.1,0.04,Rain,Rain,60,2013-02-08 00:55:00
8:15 PM,55.4,51.8,88,29.87,10.0,ENE,12.7,18.4,0.01,Rain,Rain,60,2013-02-08 01:15:00
8:35 PM,55.4,53.6,94,29.84,10.0,NE,13.8,23.0,0.06,Rain,Light Rain,50,2013-02-08 01:35:00
8:55 PM,55.4,53.6,94,29.85,7.0,ENE,9.2,16.1,0.11,Rain,Rain,70,2013-02-08 01:55:00
9:15 PM,55.4,53.6,94,29.84,7.0,ENE,6.9,-,0.04,Rain,Rain,70,2013-02-08 02:15:00
9:35 PM,55.4,53.6,94,29.83,5.0,ENE,10.4,16.1,0.09,Rain,Rain,60,2013-02-08 02:35:00
9:55 PM,55.4,53.6,94,29.81,5.0,East,11.5,-,0.18,Rain,Heavy Rain,80,2013-02-08 02:55:00
10:15 PM,55.4,53.6,94,29.79,7.0,ENE,4.6,-,0.05,Rain-Thunderstorm,Light Thunderstorms and Rain,70,2013-02-08 03:15:00
10:35 PM,55.4,53.6,94,29.77,7.0,East,8.1,-,0.08,Rain-Thunderstorm,Heavy Thunderstorms and Rain,90,2013-02-08 03:35:00
10:55 PM,55.4,53.6,94,29.76,10.0,Calm,Calm,-,0.11,Rain,Light Rain,0,2013-02-08 03:55:00
11:15 PM,55.4,53.6,94,29.74,10.0,East,5.8,-,0.01,Rain,Light Rain,80,2013-02-08 04:15:00
11:35 PM,55.4,53.6,94,29.74,10.0,NNW,3.5,-,0.02,Rain,Rain,340,2013-02-08 04:35:00
11:55 PM,55.4,53.6,94,29.76,4.0,NW,4.6,-,0.16,Rain,Heavy Rain,320,2013-02-08 04:55:00